Location: �ilina
(49.3074°N, 18.7654°E)
Time: 20:34:00
(UTC+02:00)

ISS - Visible Passes

Search period start: 20 July 2019 00:00
Search period end: 30 July 2019 00:00
Orbit: 409 x 418 km, 51.6° (Epoch: 20 July)

Date Brightness Start Highest point End Pass type
(mag) Time Alt. Az. Time Alt. Az. Time Alt. Az.
20 Jul -3.8 01:29:54 10° WNW 01:33:14 81° NNE 01:36:34 10° ESE visible
20 Jul -2.7 03:06:49 10° W 03:11:55 14° SSE 03:12:32 10° SSE visible
20 Jul -3.6 21:27:01 10° SW 21:30:16 51° SSE 21:33:32 10° ENE visible
20 Jul -3.2 23:03:39 10° W 23:06:58 60° N 23:10:16 10° ENE visible
21 Jul -3.5 00:40:33 10° WNW 00:43:52 66° NNE 00:45:17 31° E visible
21 Jul -1.5 02:17:20 10° WNW 02:18:00 15° W 02:18:00 15° W visible
21 Jul -3.5 22:14:14 10° W 22:17:34 71° NNW 22:20:54 10° ENE visible
21 Jul -3.2 23:51:10 10° WNW 23:54:28 58° N 23:56:36 20° E visible
22 Jul -2.1 01:27:55 10° WNW 01:29:22 23° W 01:29:22 23° W visible
22 Jul -3.8 21:24:50 10° WSW 21:28:11 89° NNW 21:31:33 10° ENE visible
22 Jul -3.1 23:01:45 10° WNW 23:05:03 54° N 23:08:20 10° E visible
23 Jul -3.3 00:38:32 10° WNW 00:41:07 50° WNW 00:41:07 50° WNW visible
23 Jul -3.1 22:12:18 10° W 22:15:36 56° N 22:18:54 10° ENE visible
23 Jul -3.7 23:49:09 10° WNW 23:52:30 76° NNE 23:53:02 58° E visible
24 Jul -3.2 21:22:51 10° W 21:26:10 62° N 21:29:29 10° ENE visible
24 Jul -3.4 22:59:45 10° WNW 23:03:05 63° N 23:05:02 22° E visible
25 Jul -1.8 00:36:31 10° WNW 00:37:50 21° W 00:37:50 21° W visible
25 Jul -3.2 22:10:19 10° WNW 22:13:38 56° N 22:16:55 10° E visible
25 Jul -3.5 23:47:04 10° WNW 23:49:53 54° WSW 23:49:53 54° WSW visible
26 Jul -3.1 21:20:51 10° W 21:24:09 55° N 21:27:27 10° E visible
26 Jul -3.9 22:57:39 10° WNW 23:01:00 89° SSW 23:01:58 44° ESE visible
27 Jul -1.0 00:34:42 10° W 00:34:46 10° W 00:34:46 10° W visible
27 Jul -3.6 22:08:13 10° WNW 22:11:34 72° NNE 22:14:05 16° E visible
27 Jul -2.2 23:45:04 10° W 23:46:54 25° WSW 23:46:54 25° WSW visible
28 Jul -3.3 21:18:47 10° WNW 21:22:06 61° N 21:25:25 10° E visible
28 Jul -3.6 22:55:31 10° WNW 22:58:47 50° SSW 22:59:02 48° S visible
29 Jul -3.8 22:06:03 10° WNW 22:09:24 72° SSW 22:11:13 24° ESE visible
29 Jul -1.2 23:43:25 10° W 23:44:01 13° WSW 23:44:01 13° WSW visible
